Location: Champs
(48.8539°N, 2.6040°E)
Time: 13:27:17
(UTC+00:00)

YAOGAN 6 - Pass Details

Date: 26 October 2021
Orbit: 464 x 499 km, 97.1° (Epoch: 07 December)

Event Time Altitude Azimuth Distance (km) Brightness Sun altitude
Rises 04:25:22 0° 21° (NNE) 2,533 6.5 -20.6°
Reaches altitude 10° 04:27:35 10° 31° (NNE) 1,655 5.7 -20.2°
Maximum altitude 04:30:49 32° 96° (E) 844 4.4 -19.7°
Drops below altitude 10° 04:34:03 10° 162° (SSE) 1,660 5.4 -19.2°
Sets 04:36:16 0° 172° (S) 2,541 6.3 -18.8°
